Starlink 30547

operational
NORAD ID: 58044 Int'l Des: 2023-156 Owner: SPXS Country: US Constellation: starlink
LEOCIRCULAR

关于 Starlink 30547

正在加载描述...

实时位置

正在加载3D地球...

即将过境

高度历史

Altitude vs Time

uPlot chart will show altitude changes over time

两行轨道根数

1 58044U 23156S 26035.06448445 .00000043 00000-0 13571-4 0 9997
2 58044 53.1616 324.3954 0001369 72.4723 287.6428 15.30186119129889
Epoch: Feb 4, 2026 • Age: 9 hours

当前状态

高度 475.9 km
速度 7.63 km/s
星下点 0.12°N, 23.74°E
发射日期 Oct 9, 2023
运行时间 2.3 years
类型 internet

技术详情

分类 Payload
质量 730.00 kg
干质量 700.00 kg
总质量 730.00 kg
长度 0.30 m
直径 4.10 m
跨度 29.00 m
形状 Box + pan
制造商 SPXS
平台类型 Starlink V2M
阶段状态 In Orbit
所有者/国家 SPXS/US

大型星座

Loading constellations...